QPF
0.01 0.01 0.01 0.02 0.02 0.02 0.02 0.02 0.02 0.02 0.01 0.02 0.02 0.03 0.03 0.04 0.05 0.05 0.04 0.03 0.03 0.02 0.02 0.01 0.01 0.01 0.02 0.03 0.02 0.03 0.04 0.04 0.02 0.02 0.02 0.03 0.04 0.05 0.06 0.05 0.04 0.04 0.04
0.02 0.03 0.03 0.04 0.04 0.04 0.03 0.02 0.03 0.02 0.02 0.02 0.02 0.03 0.04 0.05 0.05 0.05 0.06 0.09 0.13 0.07 0.04 0.03 0.02 0.03 0.04 0.03 0.02 0.03 0.03 0.03 0.02 0.02 0.02 0.03 0.03 0.05 0.06 0.09 0.08 0.06 0.05
0.04 0.05 0.07 0.12 0.15 0.12 0.05 0.05 0.04 0.02 0.02 0.02 0.02 0.03 0.06 0.11 0.08 0.06 0.08 0.11 0.12 0.08 0.07 0.05 0.05 0.05 0.04 0.03 0.03 0.03 0.03 0.03 0.03 0.03 0.02 0.03 0.04 0.06 0.07 0.10 0.11 0.08 0.06
0.05 0.05 0.08 0.12 0.09 0.07 0.06 0.08 0.05 0.03 0.02 0.02 0.04 0.05 0.08 0.11 0.07 0.07 0.07 0.05 0.04 0.04 0.04 0.05 0.06 0.05 0.03 0.03 0.02 0.01 0.02 0.03 0.04 0.04 0.04 0.04 0.05 0.08 0.10 0.08 0.09 0.08 0.07
0.04 0.04 0.04 0.04 0.03 0.03 0.04 0.05 0.03 0.02 0.02 0.03 0.04 0.07 0.10 0.08 0.06 0.06 0.06 0.05 0.03 0.03 0.05 0.05 0.04 0.02 0.02 0.02 0.01 0.02 0.02 0.02 0.03 0.03 0.03 0.04 0.05 0.08 0.08 0.08 0.08 0.08 0.08
0.02 0.02 0.02 0.01 0.01 0.01 0.02 0.03 0.03 0.04 0.05 0.05 0.05 0.07 0.06 0.05 0.06 0.06 0.05 0.05 0.06 0.06 0.05 0.03 0.02 0.02 0.02 0.01 0.01 0.02 0.02 0.02 0.02 0.02 0.01 0.02 0.02 0.03 0.05 0.07 0.07 0.08 0.06
0.02 0.02 0.01 0.00 0.01 0.01 0.02 0.04 0.04 0.05 0.05 0.06 0.06 0.05 0.05 0.06 0.06 0.04 0.03 0.03 0.04 0.04 0.03 0.02 0.01 0.02 0.02 0.01 0.01 0.02 0.03 0.03 0.03 0.02 0.02 0.03 0.04 0.03 0.04 0.05 0.06 0.06 0.05
0.02 0.01 0.01 0.01 0.00 0.01 0.02 0.02 0.02 0.02 0.02 0.04 0.06 0.06 0.06 0.06 0.06 0.04 0.03 0.02 0.02 0.02 0.02 0.02 0.01 0.01 0.02 0.01 0.01 0.01 0.01 0.02 0.03 0.03 0.03 0.03 0.03 0.03 0.04 0.04 0.04 0.04 0.05
0.01 0.01 0.01 0.01 0.01 0.01 0.02 0.02 0.01 0.01 0.01 0.01 0.02 0.02 0.03 0.03 0.04 0.04 0.03 0.02 0.02 0.02 0.02 0.02 0.02 0.02 0.03 0.02 0.02 0.01 0.01 0.01 0.02 0.02 0.02 0.02 0.02 0.02 0.03 0.02 0.03 0.05 0.04
0.01 0.00 0.00 0.01 0.01 0.01 0.01 0.01 0.01 0.01 0.01 0.02 0.02 0.02 0.02 0.01 0.01 0.01 0.01 0.01 0.01 0.01 0.02 0.03 0.03 0.03 0.03 0.02 0.02 0.01 0.01 0.01 0.01 0.01 0.01 0.01 0.01 0.02 0.03 0.03 0.02 0.03 0.04
0.01 0.01 0.00 0.01 0.01 0.01 0.01 0.00 0.01 0.01 0.01 0.02 0.02 0.02 0.02 0.01 0.01 0.01 0.01 0.01 0.01 0.02 0.02 0.02 0.02 0.03 0.03 0.03 0.02 0.01 0.02 0.02 0.01 0.01 0.01 0.01 0.01 0.02 0.02 0.02 0.02 0.03 0.05
0.02 0.02 0.01 0.01 0.01 0.00 0.00 0.00 0.01 0.01 0.01 0.01 0.01 0.02 0.02 0.01 0.01 0.01 0.01 0.01 0.02 0.01 0.01 0.02 0.03 0.03 0.04 0.04 0.04 0.03 0.03 0.02 0.02 0.01 0.01 0.02 0.03 0.03 0.02 0.02 0.03 0.03 0.04
0.02 0.02 0.01 0.01 0.01 0.01 0.01 0.01 0.01 0.00 0.00 0.00 0.01 0.01 0.01 0.01 0.01 0.01 0.01 0.01 0.01 0.01 0.01 0.01 0.02 0.03 0.03 0.02 0.03 0.04 0.03 0.03 0.03 0.03 0.02 0.01 0.02 0.02 0.02 0.03 0.03 0.04 0.06
0.04 0.03 0.01 0.01 0.02 0.01 0.01 0.01 0.01 0.01 0.00 0.00 0.00 0.01 0.01 0.01 0.01 0.01 0.01 0.01 0.01 0.02 0.01 0.01 0.01 0.01 0.01 0.01 0.02 0.02 0.02 0.03 0.03 0.03 0.02 0.02 0.02 0.02 0.02 0.03 0.03 0.04 0.05
0.06 0.03 0.01 0.01 0.02 0.02 0.01 0.01 0.01 0.01 0.01 0.01 0.01 0.01 0.01 0.01 0.02 0.01 0.01 0.01 0.01 0.01 0.01 0.01 0.01 0.01 0.01 0.01 0.01 0.02 0.02 0.03 0.03 0.03 0.03 0.02 0.02 0.02 0.02 0.03 0.04 0.04 0.05
0.04 0.02 0.01 0.01 0.01 0.01 0.01 0.01 0.01 0.01 0.01 0.01 0.01 0.01 0.01 0.01 0.01 0.01 0.00 0.00 0.00 0.00 0.00 0.00 0.00 0.00 0.01 0.01 0.01 0.02 0.03 0.03 0.03 0.03 0.03 0.03 0.03 0.03 0.04 0.05 0.05 0.04 0.05
0.03 0.02 0.01 0.01 0.01 0.01 0.01 0.01 0.01 0.00 0.00 0.00 0.00 0.00 0.00 0.00 0.01 0.01 0.00 0.00 0.00 0.00 0.00 0.00 0.00 0.01 0.01 0.01 0.01 0.01 0.02 0.03 0.04 0.04 0.04 0.04 0.04 0.04 0.04 0.05 0.05 0.04 0.04
0.02 0.02 0.02 0.01 0.01 0.01 0.01 0.00 0.00 0.00 0.00 0.00 0.00 0.00 0.00 0.00 0.01 0.01 0.01 0.01 0.00 0.00 0.00 0.01 0.01 0.01 0.01 0.01 0.01 0.01 0.02 0.04 0.05 0.05 0.06 0.05 0.05 0.05 0.04 0.04 0.03 0.03 0.04
0.02 0.01 0.01 0.01 0.01 0.01 0.00 0.00 0.01 0.00 0.01 0.01 0.01 0.00 0.00 0.00 0.01 0.01 0.01 0.01 0.01 0.01 0.01 0.01 0.02 0.01 0.01 0.01 0.01 0.01 0.01 0.02 0.04 0.05 0.05 0.05 0.05 0.05 0.04 0.03 0.03 0.04 0.03
0.03 0.02 0.02 0.02 0.03 0.01 0.01 0.01 0.01 0.01 0.01 0.01 0.01 0.01 0.01 0.01 0.01 0.01 0.01 0.00 0.00 0.01 0.01 0.01 0.01 0.01 0.01 0.01 0.01 0.02 0.01 0.01 0.02 0.03 0.05 0.06 0.06 0.05 0.05 0.04 0.03 0.03 0.02
0.03 0.03 0.03 0.04 0.04 0.04 0.03 0.03 0.02 0.02 0.02 0.02 0.02 0.02 0.02 0.01 0.01 0.01 0.01 0.01 0.01 0.01 0.01 0.01 0.01 0.01 0.01 0.01 0.01 0.02 0.03 0.04 0.04 0.04 0.04 0.05 0.06 0.06 0.06 0.05 0.03 0.03 0.02
0.02 0.02 0.03 0.03 0.04 0.04 0.04 0.04 0.03 0.03 0.03 0.03 0.03 0.02 0.01 0.01 0.01 0.01 0.01 0.01 0.01 0.01 0.01 0.01 0.01 0.01 0.01 0.02 0.02 0.02 0.03 0.04 0.06 0.06 0.05 0.04 0.04 0.05 0.06 0.06 0.05 0.04 0.03
0.02 0.03 0.03 0.03 0.03 0.03 0.03 0.03 0.03 0.04 0.03 0.03 0.02 0.02 0.02 0.01 0.01 0.01 0.01 0.01 0.01 0.01 0.01 0.01 0.01 0.01 0.01 0.01 0.02 0.03 0.04 0.05 0.06 0.05 0.04 0.03 0.03 0.02 0.03 0.05 0.06 0.04 0.03
0.02 0.03 0.04 0.04 0.03 0.02 0.03 0.03 0.04 0.05 0.04 0.03 0.02 0.02 0.02 0.02 0.01 0.01 0.01 0.01 0.02 0.02 0.02 0.02 0.02 0.02 0.02 0.02 0.03 0.03 0.03 0.05 0.07 0.06 0.03 0.02 0.02 0.02 0.02 0.03 0.06 0.06 0.05
0.02 0.03 0.03 0.02 0.03 0.04 0.04 0.04 0.05 0.04 0.03 0.02 0.01 0.01 0.01 0.01 0.01 0.01 0.01 0.01 0.02 0.02 0.02 0.01 0.01 0.01 0.01 0.01 0.02 0.03 0.04 0.04 0.06 0.06 0.04 0.02 0.01 0.01 0.02 0.03 0.05 0.06 0.05
0.02 0.02 0.01 0.01 0.01 0.01 0.02 0.02 0.02 0.01 0.01 0.01 0.01 0.02 0.02 0.01 0.01 0.01 0.01 0.01 0.02 0.01 0.01 0.00 0.01 0.01 0.01 0.02 0.02 0.03 0.03 0.03 0.04 0.04 0.03 0.01 0.01 0.01 0.01 0.02 0.04 0.05 0.06
MSLP
1013.47 1013.62 1013.79 1013.94 1014.06 1014.12 1014.13 1014.11 1014.06 1014.01 1013.96 1013.89 1013.79 1013.63 1013.38 1013.02 1012.56 1011.98 1011.33 1010.63 1009.93 1009.25 1008.62 1008.04 1007.50 1006.98 1006.44 1005.86 1005.22 1004.51 1003.75 1002.96 1002.17 1001.45 1000.81 1000.31 999.96 999.77 999.74 999.84 1000.04 1000.31 1000.62
1014.27 1014.43 1014.58 1014.68 1014.72 1014.71 1014.64 1014.54 1014.43 1014.34 1014.26 1014.18 1014.09 1013.94 1013.71 1013.38 1012.93 1012.37 1011.73 1011.03 1010.32 1009.62 1008.97 1008.37 1007.81 1007.26 1006.71 1006.11 1005.46 1004.73 1003.95 1003.14 1002.33 1001.57 1000.90 1000.36 999.96 999.72 999.62 999.65 999.78 999.97 1000.19
1015.08 1015.26 1015.40 1015.46 1015.45 1015.35 1015.21 1015.03 1014.86 1014.71 1014.58 1014.48 1014.37 1014.22 1013.99 1013.66 1013.22 1012.67 1012.04 1011.34 1010.63 1009.94 1009.28 1008.67 1008.10 1007.54 1006.97 1006.35 1005.67 1004.92 1004.11 1003.26 1002.41 1001.61 1000.90 1000.32 999.88 999.59 999.45 999.43 999.49 999.62 999.77
1015.87 1016.08 1016.22 1016.26 1016.20 1016.05 1015.83 1015.59 1015.36 1015.15 1014.98 1014.84 1014.70 1014.52 1014.27 1013.93 1013.48 1012.93 1012.29 1011.59 1010.89 1010.20 1009.54 1008.93 1008.35 1007.77 1007.17 1006.52 1005.79 1004.99 1004.13 1003.22 1002.33 1001.48 1000.73 1000.11 999.64 999.33 999.16 999.11 999.15 999.24 999.35
1016.59 1016.83 1016.98 1017.01 1016.92 1016.73 1016.47 1016.19 1015.92 1015.67 1015.47 1015.29 1015.11 1014.89 1014.61 1014.24 1013.76 1013.18 1012.52 1011.82 1011.11 1010.42 1009.76 1009.13 1008.53 1007.92 1007.28 1006.57 1005.78 1004.91 1003.97 1003.01 1002.05 1001.15 1000.37 999.72 999.24 998.93 998.76 998.71 998.75 998.83 998.94
1017.19 1017.45 1017.60 1017.62 1017.53 1017.33 1017.06 1016.77 1016.49 1016.24 1016.01 1015.81 1015.60 1015.35 1015.03 1014.61 1014.09 1013.47 1012.79 1012.06 1011.33 1010.62 1009.94 1009.29 1008.65 1008.00 1007.29 1006.52 1005.65 1004.69 1003.68 1002.64 1001.62 1000.68 999.86 999.21 998.74 998.44 998.29 998.27 998.33 998.43 998.55
1017.63 1017.89 1018.04 1018.06 1017.97 1017.78 1017.54 1017.28 1017.02 1016.79 1016.58 1016.38 1016.16 1015.88 1015.52 1015.05 1014.48 1013.82 1013.10 1012.34 1011.58 1010.84 1010.12 1009.44 1008.75 1008.04 1007.26 1006.41 1005.45 1004.42 1003.32 1002.21 1001.14 1000.17 999.34 998.69 998.23 997.96 997.85 997.86 997.94 998.07 998.20
1017.92 1018.15 1018.29 1018.31 1018.23 1018.07 1017.88 1017.67 1017.47 1017.30 1017.13 1016.96 1016.74 1016.45 1016.06 1015.55 1014.94 1014.23 1013.46 1012.66 1011.86 1011.08 1010.33 1009.60 1008.86 1008.09 1007.25 1006.31 1005.29 1004.18 1003.02 1001.85 1000.75 999.75 998.92 998.28 997.85 997.60 997.52 997.55 997.66 997.79 997.93
1018.07 1018.26 1018.37 1018.38 1018.32 1018.21 1018.07 1017.94 1017.83 1017.73 1017.63 1017.50 1017.30 1017.02 1016.61 1016.08 1015.43 1014.68 1013.87 1013.03 1012.19 1011.37 1010.58 1009.81 1009.02 1008.20 1007.30 1006.31 1005.23 1004.07 1002.87 1001.68 1000.55 999.55 998.72 998.10 997.67 997.44 997.36 997.40 997.50 997.62 997.74
1018.13 1018.27 1018.34 1018.34 1018.30 1018.24 1018.18 1018.13 1018.11 1018.09 1018.06 1017.99 1017.82 1017.55 1017.13 1016.58 1015.91 1015.13 1014.29 1013.41 1012.55 1011.70 1010.88 1010.08 1009.26 1008.40 1007.47 1006.45 1005.34 1004.16 1002.95 1001.75 1000.63 999.63 998.81 998.18 997.75 997.51 997.41 997.41 997.48 997.55 997.62
1018.15 1018.23 1018.27 1018.26 1018.25 1018.23 1018.24 1018.28 1018.34 1018.40 1018.44 1018.41 1018.28 1018.01 1017.60 1017.03 1016.34 1015.54 1014.69 1013.80 1012.92 1012.06 1011.23 1010.41 1009.58 1008.71 1007.77 1006.75 1005.64 1004.47 1003.27 1002.09 1000.97 999.98 999.16 998.52 998.06 997.78 997.62 997.56 997.55 997.55 997.55
1018.16 1018.20 1018.21 1018.21 1018.21 1018.24 1018.31 1018.42 1018.55 1018.67 1018.76 1018.76 1018.65 1018.39 1017.97 1017.41 1016.71 1015.91 1015.05 1014.16 1013.29 1012.44 1011.62 1010.81 1009.99 1009.13 1008.21 1007.21 1006.13 1004.98 1003.81 1002.65 1001.55 1000.57 999.73 999.05 998.54 998.18 997.94 997.78 997.67 997.58 997.48
1018.18 1018.19 1018.19 1018.20 1018.23 1018.30 1018.42 1018.58 1018.76 1018.92 1019.02 1019.04 1018.93 1018.68 1018.26 1017.69 1017.00 1016.21 1015.37 1014.51 1013.66 1012.84 1012.05 1011.27 1010.48 1009.66 1008.77 1007.81 1006.77 1005.66 1004.52 1003.39 1002.30 1001.31 1000.43 999.70 999.11 998.65 998.29 998.01 997.79 997.58 997.39
1018.21 1018.21 1018.22 1018.25 1018.32 1018.43 1018.58 1018.77 1018.96 1019.13 1019.24 1019.25 1019.13 1018.87 1018.45 1017.89 1017.22 1016.47 1015.67 1014.86 1014.06 1013.29 1012.54 1011.81 1011.06 1010.28 1009.44 1008.53 1007.53 1006.46 1005.35 1004.23 1003.15 1002.12 1001.19 1000.38 999.69 999.11 998.62 998.22 997.87 997.56 997.28
1018.24 1018.26 1018.29 1018.35 1018.45 1018.59 1018.76 1018.96 1019.15 1019.31 1019.40 1019.39 1019.25 1018.98 1018.57 1018.04 1017.40 1016.70 1015.96 1015.22 1014.49 1013.79 1013.10 1012.43 1011.74 1011.01 1010.21 1009.34 1008.38 1007.34 1006.26 1005.14 1004.03 1002.96 1001.97 1001.06 1000.25 999.54 998.92 998.38 997.92 997.51 997.16
1018.27 1018.32 1018.38 1018.47 1018.59 1018.75 1018.94 1019.13 1019.30 1019.44 1019.49 1019.46 1019.30 1019.03 1018.64 1018.14 1017.57 1016.94 1016.28 1015.63 1014.98 1014.36 1013.75 1013.14 1012.50 1011.82 1011.07 1010.23 1009.30 1008.29 1007.21 1006.09 1004.95 1003.82 1002.74 1001.73 1000.80 999.96 999.21 998.55 997.97 997.48 997.07
1018.29 1018.36 1018.46 1018.58 1018.73 1018.90 1019.08 1019.25 1019.40 1019.50 1019.53 1019.46 1019.30 1019.03 1018.67 1018.23 1017.73 1017.19 1016.64 1016.08 1015.54 1015.00 1014.47 1013.92 1013.34 1012.70 1011.99 1011.18 1010.28 1009.28 1008.20 1007.06 1005.89 1004.70 1003.54 1002.43 1001.38 1000.42 999.54 998.77 998.09 997.53 997.07
1018.30 1018.40 1018.52 1018.66 1018.82 1019.00 1019.17 1019.32 1019.44 1019.50 1019.50 1019.42 1019.26 1019.01 1018.70 1018.33 1017.91 1017.47 1017.02 1016.57 1016.12 1015.67 1015.21 1014.73 1014.20 1013.60 1012.93 1012.15 1011.27 1010.29 1009.21 1008.07 1006.86 1005.64 1004.41 1003.20 1002.05 1000.97 999.99 999.11 998.35 997.71 997.21
1018.29 1018.41 1018.55 1018.70 1018.88 1019.05 1019.20 1019.33 1019.42 1019.45 1019.43 1019.34 1019.19 1018.98 1018.72 1018.42 1018.09 1017.75 1017.40 1017.05 1016.69 1016.32 1015.93 1015.50 1015.01 1014.46 1013.82 1013.08 1012.23 1011.28 1010.23 1009.09 1007.88 1006.62 1005.35 1004.08 1002.85 1001.68 1000.60 999.63 998.78 998.08 997.52
1018.27 1018.40 1018.55 1018.71 1018.88 1019.04 1019.18 1019.29 1019.35 1019.36 1019.33 1019.23 1019.10 1018.92 1018.71 1018.48 1018.24 1017.98 1017.72 1017.45 1017.16 1016.86 1016.52 1016.14 1015.70 1015.19 1014.59 1013.90 1013.10 1012.20 1011.19 1010.09 1008.91 1007.66 1006.37 1005.07 1003.79 1002.56 1001.40 1000.34 999.42 998.64 998.02
1018.22 1018.35 1018.51 1018.68 1018.84 1018.99 1019.12 1019.20 1019.24 1019.24 1019.19 1019.10 1018.97 1018.83 1018.66 1018.48 1018.30 1018.11 1017.91 1017.69 1017.46 1017.20 1016.91 1016.56 1016.17 1015.70 1015.16 1014.53 1013.80 1012.98 1012.05 1011.02 1009.90 1008.71 1007.45 1006.15 1004.85 1003.58 1002.37 1001.25 1000.25 999.40 998.71
1018.12 1018.27 1018.43 1018.60 1018.76 1018.90 1019.01 1019.08 1019.10 1019.08 1019.02 1018.93 1018.81 1018.68 1018.54 1018.39 1018.24 1018.08 1017.91 1017.73 1017.52 1017.29 1017.01 1016.70 1016.35 1015.93 1015.46 1014.91 1014.28 1013.56 1012.74 1011.82 1010.81 1009.70 1008.51 1007.27 1005.99 1004.72 1003.48 1002.32 1001.26 1000.33 999.57
1017.97 1018.13 1018.30 1018.47 1018.63 1018.77 1018.86 1018.91 1018.91 1018.88 1018.80 1018.70 1018.58 1018.44 1018.31 1018.16 1018.01 1017.86 1017.69 1017.51 1017.31 1017.08 1016.82 1016.53 1016.21 1015.85 1015.45 1015.00 1014.48 1013.89 1013.22 1012.44 1011.57 1010.59 1009.51 1008.35 1007.14 1005.90 1004.67 1003.49 1002.40 1001.41 1000.57
1017.77 1017.94 1018.13 1018.30 1018.46 1018.58 1018.66 1018.69 1018.68 1018.62 1018.53 1018.41 1018.27 1018.12 1017.96 1017.80 1017.64 1017.46 1017.27 1017.07 1016.85 1016.61 1016.35 1016.08 1015.80 1015.50 1015.18 1014.83 1014.44 1013.99 1013.47 1012.86 1012.15 1011.33 1010.39 1009.35 1008.24 1007.07 1005.88 1004.72 1003.61 1002.60 1001.70
1017.52 1017.71 1017.91 1018.08 1018.23 1018.34 1018.41 1018.42 1018.38 1018.30 1018.18 1018.04 1017.88 1017.71 1017.52 1017.33 1017.13 1016.93 1016.70 1016.47 1016.22 1015.97 1015.71 1015.45 1015.20 1014.95 1014.71 1014.47 1014.20 1013.90 1013.54 1013.10 1012.56 1011.90 1011.13 1010.23 1009.24 1008.17 1007.07 1005.95 1004.87 1003.85 1002.93
1017.25 1017.45 1017.65 1017.82 1017.96 1018.05 1018.09 1018.08 1018.02 1017.92 1017.78 1017.61 1017.43 1017.23 1017.02 1016.80 1016.57 1016.33 1016.08 1015.81 1015.54 1015.26 1015.00 1014.75 1014.53 1014.34 1014.17 1014.02 1013.87 1013.70 1013.49 1013.20 1012.82 1012.33 1011.72 1010.98 1010.13 1009.19 1008.18 1007.15 1006.12 1005.14 1004.23
Thickness
5774 5771 5768 5765 5763 5760 5757 5755 5754 5752 5750 5747 5745 5742 5739 5735 5732 5729 5726 5723 5719 5717 5715 5712 5710 5709 5706 5704 5703 5700 5698 5695 5690 5691 5693 5695 5696 5695 5695 5694 5693 5691 5690
5771 5767 5763 5761 5758 5755 5752 5751 5749 5747 5745 5742 5739 5736 5733 5730 5727 5723 5720 5717 5713 5710 5708 5705 5703 5702 5699 5697 5695 5693 5691 5690 5687 5684 5685 5687 5687 5687 5687 5687 5686 5685 5684
5766 5762 5758 5756 5753 5750 5748 5746 5744 5742 5739 5736 5733 5729 5726 5724 5721 5718 5715 5711 5708 5706 5703 5699 5697 5695 5692 5690 5689 5686 5685 5685 5682 5679 5678 5679 5679 5680 5678 5678 5678 5677 5677
5762 5758 5754 5751 5748 5745 5743 5741 5739 5736 5732 5730 5727 5723 5721 5718 5716 5713 5709 5706 5703 5700 5697 5695 5692 5690 5687 5685 5683 5680 5679 5676 5674 5672 5670 5670 5670 5670 5669 5667 5667 5668 5668
5757 5752 5748 5746 5744 5741 5737 5735 5732 5729 5726 5723 5720 5717 5714 5712 5709 5706 5701 5699 5695 5692 5690 5689 5687 5686 5684 5681 5678 5675 5672 5669 5666 5664 5663 5662 5661 5659 5660 5660 5659 5659 5661
5751 5747 5744 5741 5737 5734 5731 5728 5725 5721 5718 5715 5712 5709 5706 5705 5703 5700 5697 5692 5689 5685 5683 5681 5680 5679 5677 5675 5673 5671 5669 5664 5660 5658 5656 5654 5654 5654 5654 5654 5652 5650 5650
5745 5741 5738 5735 5731 5727 5725 5721 5717 5713 5710 5707 5704 5702 5699 5697 5696 5693 5691 5686 5682 5679 5676 5674 5673 5673 5670 5668 5666 5665 5663 5661 5659 5655 5651 5650 5649 5650 5649 5647 5645 5644 5644
5739 5736 5733 5729 5724 5720 5717 5713 5710 5707 5703 5700 5697 5695 5692 5691 5689 5686 5684 5679 5676 5673 5671 5668 5665 5663 5662 5660 5658 5656 5655 5654 5653 5651 5649 5648 5648 5647 5645 5643 5641 5639 5640
5733 5730 5727 5723 5718 5714 5710 5706 5703 5699 5696 5693 5690 5688 5684 5682 5681 5679 5676 5671 5668 5665 5663 5661 5659 5656 5655 5653 5650 5648 5647 5647 5648 5647 5646 5644 5643 5643 5641 5637 5634 5631 5630
5728 5725 5721 5717 5713 5708 5704 5700 5696 5693 5689 5686 5683 5680 5677 5674 5673 5670 5668 5663 5658 5656 5655 5654 5653 5650 5648 5646 5642 5640 5638 5638 5638 5638 5638 5637 5636 5636 5635 5632 5629 5625 5623
5723 5719 5715 5711 5707 5703 5698 5694 5690 5686 5682 5678 5675 5672 5669 5666 5664 5662 5659 5654 5650 5648 5646 5645 5644 5643 5641 5639 5636 5634 5633 5631 5629 5629 5628 5628 5627 5627 5626 5625 5624 5621 5619
5716 5711 5707 5704 5701 5697 5691 5687 5682 5678 5673 5669 5665 5662 5660 5657 5655 5653 5650 5647 5644 5640 5638 5637 5636 5635 5633 5631 5630 5629 5627 5625 5622 5621 5619 5618 5618 5618 5619 5619 5619 5618 5618
5709 5703 5699 5696 5693 5689 5684 5679 5674 5669 5664 5660 5655 5652 5650 5648 5646 5644 5641 5639 5636 5633 5631 5630 5628 5627 5626 5625 5623 5622 5620 5617 5615 5613 5611 5611 5611 5611 5612 5612 5612 5612 5612
5699 5694 5691 5687 5683 5680 5676 5671 5666 5660 5656 5652 5647 5643 5640 5638 5636 5634 5632 5630 5628 5625 5622 5622 5621 5620 5619 5618 5616 5614 5612 5610 5608 5606 5605 5605 5606 5605 5604 5604 5603 5603 5602
5692 5688 5683 5679 5675 5670 5667 5663 5658 5653 5650 5645 5641 5637 5633 5630 5628 5626 5622 5620 5618 5616 5614 5612 5611 5610 5608 5607 5606 5605 5603 5602 5601 5600 5599 5599 5598 5597 5597 5596 5595 5594 5592
5684 5680 5675 5671 5667 5662 5658 5654 5651 5647 5644 5641 5637 5632 5629 5626 5623 5620 5617 5614 5612 5609 5606 5602 5600 5599 5598 5597 5596 5595 5594 5593 5593 5593 5592 5591 5590 5589 5589 5588 5588 5587 5585
5679 5674 5669 5665 5660 5655 5651 5646 5641 5638 5636 5633 5630 5626 5623 5619 5616 5613 5609 5606 5604 5601 5597 5594 5592 5590 5589 5588 5587 5586 5586 5586 5585 5585 5584 5583 5582 5582 5581 5580 5579 5579 5578
5673 5669 5663 5658 5654 5649 5644 5639 5635 5630 5626 5623 5621 5618 5615 5611 5608 5605 5602 5598 5594 5591 5588 5586 5584 5582 5581 5580 5579 5578 5577 5577 5577 5577 5576 5575 5574 5573 5573 5572 5571 5571 5570
5666 5661 5656 5652 5647 5642 5638 5634 5629 5624 5619 5615 5611 5609 5606 5603 5600 5596 5593 5589 5586 5583 5581 5579 5577 5575 5574 5573 5571 5570 5569 5568 5568 5568 5568 5567 5566 5566 5565 5564 5564 5564 5563
5660 5657 5652 5646 5641 5636 5632 5627 5622 5618 5613 5609 5604 5601 5597 5594 5590 5587 5584 5581 5578 5576 5574 5572 5570 5569 5567 5566 5564 5563 5561 5561 5560 5559 5559 5559 5559 5558 5558 5557 5557 5556 5555
5653 5650 5647 5641 5635 5631 5626 5622 5617 5613 5608 5604 5600 5597 5592 5588 5584 5581 5578 5575 5573 5570 5568 5566 5564 5563 5561 5559 5558 5556 5555 5554 5552 5551 5551 5551 5551 5551 5550 5550 5550 5550 5549
5647 5643 5639 5634 5629 5625 5621 5617 5612 5608 5604 5600 5596 5592 5588 5584 5580 5577 5574 5571 5568 5566 5563 5561 5558 5556 5554 5553 5551 5550 5549 5547 5545 5544 5543 5543 5543 5543 5544 5543 5543 5542 5542
5642 5638 5633 5628 5624 5621 5616 5612 5607 5603 5599 5595 5591 5587 5583 5580 5576 5573 5570 5567 5563 5561 5558 5555 5552 5550 5548 5546 5545 5544 5542 5540 5539 5538 5536 5536 5536 5536 5536 5536 5536 5536 5536
5637 5632 5627 5623 5619 5615 5611 5607 5603 5599 5595 5591 5587 5583 5579 5575 5572 5569 5565 5562 5559 5556 5553 5550 5547 5545 5543 5541 5539 5537 5536 5535 5534 5533 5532 5530 5529 5530 5529 5530 5530 5531 5530
5631 5626 5622 5618 5614 5609 5605 5601 5597 5594 5590 5587 5583 5579 5575 5571 5567 5564 5560 5557 5554 5550 5547 5544 5541 5539 5537 5536 5533 5531 5530 5529 5528 5527 5526 5525 5524 5524 5524 5524 5524 5525 5525
5625 5621 5616 5612 5608 5604 5600 5596 5592 5589 5585 5582 5579 5575 5571 5567 5563 5559 5556 5552 5548 5544 5541 5538 5535 5533 5531 5529 5527 5526 5524 5523 5522 5521 5520 5519 5519 5519 5518 5518 5519 5519 5519